Location: Newark
(40.7060°N, 73.9980°W)
Time: 17:02:36
(UTC+00:00)

N. Korean satellite - Pass Details

Date: 24 November 2019
Orbit: 455 x 506 km, 97.2° (Epoch: 10 December)

Event Time Altitude Azimuth Distance (km) Brightness Sun altitude
Rises 10:17:55 0° 21° (NNE) 2,600 10.4 -17.8°
Reaches altitude 10° 10:20:09 10° 31° (NNE) 1,704 9.5 -17.3°
Maximum altitude 10:23:31 33° 97° (E) 839 8.4 -16.7°
Drops below altitude 10° 10:26:48 10° 163° (SSE) 1,665 9.7 -16.1°
Sets 10:28:58 0° 173° (S) 2,531 10.5 -15.7°
